Location: Larkspur
(54.4391°N, 113.7691°W)
Time: 13:13:58
(UTC+00:00)

METEOR M2 - Pass Details

Date: 07 December 2023
Orbit: 819 x 826 km, 98.4° (Epoch: 02 March)

Event Time Altitude Azimuth Distance (km) Brightness Sun altitude
Rises 00:31:39 0° 170° (S) 3,354 ? -10.7°
Reaches altitude 10° 00:34:00 10° 173° (S) 2,425 ? -11.0°
Maximum altitude 00:39:22 69° 257° (WSW) 889 ? -11.7°
Drops below altitude 10° 00:44:46 10° 341° (NNW) 2,440 ? -12.4°
Sets 00:47:09 0° 344° (NNW) 3,377 ? -12.8°
